Timestamp, Local Timestamp, ID, PM25, PM10, Co2, Temperature, Relative Humidity, Monitor ID, O3
2021-07-19T14:15:16Z,07/19/21 10:15,6073174,0.984,0.003,624,22.2,61.8,64,0.0
2021-07-19T14:16:16Z,07/19/21 10:16,6073181,1.091,0.001,644,22.2,61.8,64,0.0
2021-07-19T14:17:16Z,07/19/21 10:17,6073187,1.1869999999999998,0.004,633,22.2,61.8,64,0.0
2021-07-19T14:18:16Z,07/19/21 10:18,6073195,1.15,0.005,627,22.2,61.8,64,0.0
2021-07-19T14:19:16Z,07/19/21 10:19,6073202,1.136,0.007000000000000001,633,22.2,61.7,64,0.0
2021-07-19T14:20:16Z,07/19/21 10:20,6073209,1.084,0.002,631,22.2,61.7,64,0.0
2021-07-19T14:21:16Z,07/19/21 10:21,6073216,1.115,0.001,629,22.2,61.7,64,0.0
2021-07-19T14:22:16Z,07/19/21 10:22,6073223,1.064,0.001,638,22.2,61.7,64,0.0
2021-07-19T14:23:16Z,07/19/21 10:23,6073230,1.069,0.002,644,22.2,61.7,64,0.0
2021-07-19T14:24:16Z,07/19/21 10:24,6073237,1.036,0.005,633,22.2,61.7,64,0.0
2021-07-19T14:25:16Z,07/19/21 10:25,6073244,1.248,0.0,640,22.2,61.7,64,0.0
2021-07-19T14:26:16Z,07/19/21 10:26,6073251,1.198,0.002,629,22.2,61.7,64,0.0
2021-07-19T14:27:16Z,07/19/21 10:27,6073258,1.1800000000000002,0.002,636,22.2,61.7,64,0.0
2021-07-19T14:28:16Z,07/19/21 10:28,6073265,0.9890000000000001,0.001,649,22.3,61.7,64,0.0
2021-07-19T14:29:16Z,07/19/21 10:29,6073272,1.107,0.0,647,22.3,61.7,64,0.0
2021-07-19T14:30:16Z,07/19/21 10:30,6073279,0.9890000000000001,0.001,622,22.3,61.7,64,0.0
2021-07-19T14:31:16Z,07/19/21 10:31,6073286,0.857,0.001,644,22.3,61.6,64,0.0
2021-07-19T14:32:16Z,07/19/21 10:32,6073293,0.833,0.001,618,22.3,61.6,64,0.0
2021-07-19T14:33:16Z,07/19/21 10:33,6073300,0.725,0.001,633,22.3,61.6,64,0.0
2021-07-19T14:34:16Z,07/19/21 10:34,6073307,0.884,0.004,604,22.3,61.6,64,0.0
2021-07-19T14:35:16Z,07/19/21 10:35,6073314,0.764,0.001,602,22.3,61.5,64,0.0
2021-07-19T14:36:16Z,07/19/21 10:36,6073321,0.728,0.001,604,22.3,61.5,64,0.0
2021-07-19T14:37:16Z,07/19/21 10:37,6073328,0.644,0.004,609,22.3,61.5,64,0.0
2021-07-19T14:38:16Z,07/19/21 10:38,6073335,0.654,0.0,596,22.3,61.5,64,0.0
2021-07-19T14:39:16Z,07/19/21 10:39,6073342,0.678,0.003,604,22.3,61.5,64,0.0
2021-07-19T14:40:16Z,07/19/21 10:40,6073349,0.575,0.001,602,22.3,61.4,64,0.0
2021-07-19T14:41:16Z,07/19/21 10:41,6073356,0.6559999999999999,0.004,604,22.3,61.4,64,0.0
2021-07-19T14:42:16Z,07/19/21 10:42,6073363,0.657,0.003,591,22.3,61.4,64,0.0
2021-07-19T14:43:16Z,07/19/21 10:43,6073370,0.509,0.004,600,22.3,61.4,64,0.0
2021-07-19T14:44:16Z,07/19/21 10:44,6073377,0.702,0.0,596,22.3,61.4,64,0.0
2021-07-19T14:45:16Z,07/19/21 10:45,6073384,0.725,0.004,581,22.3,61.4,64,0.0
2021-07-19T14:46:16Z,07/19/21 10:46,6073391,0.77,0.004,581,22.3,61.4,64,0.0
2021-07-19T14:47:16Z,07/19/21 10:47,6073398,0.905,0.001,611,22.2,61.4,64,0.0
2021-07-19T14:48:16Z,07/19/21 10:48,6073405,0.9470000000000001,0.001,594,22.2,61.4,64,0.0
2021-07-19T14:49:16Z,07/19/21 10:49,6073412,0.998,0.001,598,22.2,61.4,64,0.0
2021-07-19T14:50:16Z,07/19/21 10:50,6073419,1.0,0.002,600,22.2,61.4,64,0.0
2021-07-19T14:51:16Z,07/19/21 10:51,6073426,1.225,0.002,583,22.2,61.4,64,0.0
2021-07-19T14:52:16Z,07/19/21 10:52,6073433,1.277,0.001,604,22.2,61.5,64,0.0
2021-07-19T14:53:16Z,07/19/21 10:53,6073440,1.186,0.002,579,22.2,61.5,64,0.0
2021-07-19T14:54:16Z,07/19/21 10:54,6073447,1.2289999999999999,0.001,594,22.2,61.5,64,0.0
2021-07-19T14:55:16Z,07/19/21 10:55,6073454,1.326,0.0,589,22.2,61.6,64,0.0
2021-07-19T14:56:16Z,07/19/21 10:56,6073460,1.186,0.002,583,22.2,61.6,64,0.0
2021-07-19T14:57:16Z,07/19/21 10:57,6073468,1.2650000000000001,0.001,587,22.2,61.6,64,0.0
2021-07-19T14:58:16Z,07/19/21 10:58,6073475,1.2710000000000001,0.004,577,22.2,61.6,64,0.0
2021-07-19T14:59:16Z,07/19/21 10:59,6073482,1.3279999999999998,0.001,564,22.2,61.6,64,0.0
2021-07-19T15:02:45Z,07/19/21 11:02,6073496,2.591,0.01,533,22.8,62.9,64,0.0
2021-07-19T15:03:45Z,07/19/21 11:03,6073500,2.053,0.011,522,23.1,62.8,64,0.0
2021-07-19T15:04:44Z,07/19/21 11:04,6073504,2.383,0.008,490,23.5,62.5,64,0.0
2021-07-19T15:05:44Z,07/19/21 11:05,6073509,2.2190000000000003,0.007000000000000001,499,23.8,61.8,64,0.0
2021-07-19T15:06:44Z,07/19/21 11:06,6073514,2.157,0.006,492,24.2,61.4,64,0.0
2021-07-19T15:07:44Z,07/19/21 11:07,6073519,2.503,0.005,482,24.4,60.8,64,0.0
2021-07-19T15:08:44Z,07/19/21 11:08,6073524,2.274,0.003,465,24.7,60.2,64,0.0
2021-07-19T15:09:44Z,07/19/21 11:09,6073530,2.324,0.013000000000000001,460,25.0,59.8,64,0.0
2021-07-19T15:10:44Z,07/19/21 11:10,6073536,2.4699999999999998,0.008,471,25.2,59.3,64,0.0
2021-07-19T15:11:44Z,07/19/21 11:11,6073543,2.177,0.004,485,25.5,58.8,64,0.0
2021-07-19T15:12:45Z,07/19/21 11:12,6073550,2.37,0.006,464,25.6,58.6,64,0.0
2021-07-19T15:13:45Z,07/19/21 11:13,6073557,2.248,0.005,465,25.7,58.2,64,0.0
2021-07-19T15:14:44Z,07/19/21 11:14,6073564,2.132,0.007000000000000001,460,26.0,58.0,64,0.0
2021-07-19T15:15:44Z,07/19/21 11:15,6073571,2.147,0.004,488,26.2,57.5,64,0.0
2021-07-19T15:16:44Z,07/19/21 11:16,6073578,1.953,0.003,483,26.3,57.1,64,0.0
2021-07-19T15:17:44Z,07/19/21 11:17,6073585,2.107,0.005,486,26.5,56.9,64,0.0
2021-07-19T15:18:44Z,07/19/21 11:18,6073592,2.12,0.001,490,26.5,56.5,64,0.0
2021-07-19T15:19:44Z,07/19/21 11:19,6073599,2.306,0.004,473,26.7,56.5,64,0.0
2021-07-19T15:20:45Z,07/19/21 11:20,6073606,2.1550000000000002,0.014000000000000002,455,26.8,55.8,64,0.0
2021-07-19T15:21:44Z,07/19/21 11:21,6073613,2.1260000000000003,0.013000000000000001,462,26.9,55.3,64,0.0
2021-07-19T15:22:44Z,07/19/21 11:22,6073620,2.269,0.005,464,27.0,55.3,64,0.0
2021-07-19T15:23:44Z,07/19/21 11:23,6073627,2.067,0.009,452,27.1,54.8,64,0.0
2021-07-19T15:24:44Z,07/19/21 11:24,6073634,2.1710000000000003,0.004,451,27.2,54.8,64,0.0
2021-07-19T15:25:44Z,07/19/21 11:25,6073641,2.407,0.005,463,27.2,54.6,64,0.0
2021-07-19T15:26:44Z,07/19/21 11:26,6073648,2.241,0.003,480,27.3,54.1,64,0.0
2021-07-19T15:27:45Z,07/19/21 11:27,6073655,2.1510000000000002,0.006,474,27.3,53.8,64,0.0
2021-07-19T15:28:44Z,07/19/21 11:28,6073662,2.129,0.007000000000000001,466,27.4,53.6,64,0.0
2021-07-19T15:29:44Z,07/19/21 11:29,6073669,2.244,0.012,480,27.4,53.4,64,0.0
2021-07-19T15:30:44Z,07/19/21 11:30,6073676,2.122,0.005,496,27.5,53.1,64,0.0
2021-07-19T15:31:44Z,07/19/21 11:31,6073683,2.277,0.009,471,27.5,53.0,64,0.0
2021-07-19T15:32:44Z,07/19/21 11:32,6073690,2.234,0.007000000000000001,473,27.6,52.8,64,0.0
2021-07-19T15:33:44Z,07/19/21 11:33,6073697,2.1260000000000003,0.01,453,27.6,52.9,64,0.0
2021-07-19T15:34:44Z,07/19/21 11:34,6073704,2.071,0.002,457,27.7,52.9,64,0.0
2021-07-19T15:35:44Z,07/19/21 11:35,6073711,2.273,0.007000000000000001,467,27.7,52.7,64,0.0
2021-07-19T15:36:44Z,07/19/21 11:36,6073718,2.229,0.012,457,27.8,52.6,64,0.0
2021-07-19T15:37:44Z,07/19/21 11:37,6073725,2.488,0.011,476,27.9,52.3,64,0.0
2021-07-19T15:38:44Z,07/19/21 11:38,6073732,2.0469999999999997,0.005,449,27.9,52.1,64,0.0
2021-07-19T15:39:44Z,07/19/21 11:39,6073739,2.116,0.008,486,27.9,51.9,64,0.0
2021-07-19T15:40:44Z,07/19/21 11:40,6073746,2.06,0.007000000000000001,458,27.9,51.8,64,0.0
2021-07-19T15:41:44Z,07/19/21 11:41,6073753,1.967,0.007000000000000001,448,27.9,51.8,64,0.0
2021-07-19T15:42:44Z,07/19/21 11:42,6073760,2.091,0.006,491,28.0,51.7,64,0.0
2021-07-19T15:43:44Z,07/19/21 11:43,6073767,2.205,0.009,471,28.0,51.3,64,0.0
2021-07-19T15:44:44Z,07/19/21 11:44,6073774,2.308,0.026000000000000002,473,28.0,51.0,64,0.0
2021-07-19T15:45:44Z,07/19/21 11:45,6073781,2.423,0.004,458,28.1,50.9,64,0.0
2021-07-19T15:46:44Z,07/19/21 11:46,6073788,2.617,0.005,456,28.1,50.9,64,0.0
2021-07-19T15:47:44Z,07/19/21 11:47,6073795,2.216,0.004,483,28.2,50.6,64,0.0
2021-07-19T15:48:44Z,07/19/21 11:48,6073802,2.127,0.003,472,28.2,50.5,64,0.0
2021-07-19T15:49:44Z,07/19/21 11:49,6073809,1.985,0.007000000000000001,482,28.3,50.2,64,0.0
2021-07-19T15:50:44Z,07/19/21 11:50,6073816,2.012,0.004,492,28.3,49.9,64,0.0
2021-07-19T15:51:44Z,07/19/21 11:51,6073823,2.186,0.013000000000000001,474,28.4,49.9,64,0.0
2021-07-19T15:52:44Z,07/19/21 11:52,6073830,2.282,0.004,472,28.4,49.7,64,0.0
2021-07-19T15:53:44Z,07/19/21 11:53,6073837,2.283,0.003,478,28.4,49.7,64,0.0
2021-07-19T15:54:44Z,07/19/21 11:54,6073844,2.303,0.016,467,28.5,49.7,64,0.0
2021-07-19T15:55:44Z,07/19/21 11:55,6073851,2.189,0.007000000000000001,467,28.5,49.6,64,0.0
2021-07-19T15:56:44Z,07/19/21 11:56,6073858,2.354,0.013000000000000001,477,28.5,49.4,64,0.0
2021-07-19T15:57:44Z,07/19/21 11:57,6073865,2.12,0.004,479,28.5,49.4,64,0.0
2021-07-19T15:58:44Z,07/19/21 11:58,6073872,2.266,0.002,481,28.5,49.5,64,0.0
2021-07-19T15:59:44Z,07/19/21 11:59,6073879,2.266,0.014000000000000002,467,28.5,49.4,64,0.0
2021-07-19T16:00:44Z,07/19/21 12:00,6073886,2.2510000000000003,0.008,459,28.6,49.2,64,0.0
2021-07-19T16:01:44Z,07/19/21 12:01,6073893,2.3609999999999998,0.006,472,28.6,49.0,64,0.0
2021-07-19T16:02:44Z,07/19/21 12:02,6073900,2.259,0.003,455,28.6,48.8,64,0.0
2021-07-19T16:03:44Z,07/19/21 12:03,6073907,2.413,0.005,478,28.6,48.9,64,0.0
2021-07-19T16:04:44Z,07/19/21 12:04,6073914,2.1100000000000003,0.008,492,28.5,48.5,64,0.0
2021-07-19T16:05:44Z,07/19/21 12:05,6073921,1.903,0.005,506,28.6,48.8,64,0.0
2021-07-19T16:06:44Z,07/19/21 12:06,6073928,1.984,0.002,476,28.6,49.0,64,0.0
2021-07-19T16:07:44Z,07/19/21 12:07,6073935,1.9809999999999999,0.008,472,28.6,49.0,64,0.0
2021-07-19T16:08:44Z,07/19/21 12:08,6073942,2.045,0.001,482,28.6,49.0,64,0.0
2021-07-19T16:09:44Z,07/19/21 12:09,6073949,2.0100000000000002,0.003,492,28.6,49.2,64,0.0
2021-07-19T16:10:44Z,07/19/21 12:10,6073956,2.049,0.006,480,28.6,49.2,64,0.0
2021-07-19T16:11:44Z,07/19/21 12:11,6073963,2.218,0.008,478,28.7,49.0,64,0.0
2021-07-19T16:12:44Z,07/19/21 12:12,6073970,2.366,0.01,500,28.6,48.8,64,0.0
2021-07-19T16:13:44Z,07/19/21 12:13,6073977,1.954,0.017,502,28.7,48.5,64,0.0
2021-07-19T16:14:44Z,07/19/21 12:14,6073984,2.289,0.006,496,28.7,48.9,64,0.0
2021-07-19T16:15:44Z,07/19/21 12:15,6073991,2.0620000000000003,0.002,474,28.7,49.0,64,0.0
2021-07-19T16:16:44Z,07/19/21 12:16,6073998,2.193,0.003,501,28.8,48.8,64,0.0
2021-07-19T16:17:44Z,07/19/21 12:17,6074005,2.201,0.007000000000000001,518,28.8,48.9,64,0.0
2021-07-19T16:18:44Z,07/19/21 12:18,6074012,2.17,0.002,510,28.8,48.6,64,0.0
2021-07-19T16:19:44Z,07/19/21 12:19,6074019,2.346,0.006,505,28.8,48.8,64,0.0
2021-07-19T16:20:44Z,07/19/21 12:20,6074026,2.1350000000000002,0.01,493,28.9,48.6,64,0.0
2021-07-19T16:21:44Z,07/19/21 12:21,6074033,2.63,0.007000000000000001,493,28.9,48.7,64,0.0
2021-07-19T16:22:44Z,07/19/21 12:22,6074040,1.936,0.008,475,28.9,48.8,64,0.0
2021-07-19T16:23:44Z,07/19/21 12:23,6074047,2.25,0.018,483,28.9,48.6,64,0.0
2021-07-19T16:24:44Z,07/19/21 12:24,6074054,2.076,0.006,493,28.9,48.9,64,0.0
2021-07-19T16:25:44Z,07/19/21 12:25,6074061,2.2,0.005,499,28.9,48.7,64,0.0
2021-07-19T16:26:44Z,07/19/21 12:26,6074068,2.484,0.006,481,28.9,48.6,64,0.0
2021-07-19T16:27:44Z,07/19/21 12:27,6074075,2.479,0.008,493,29.0,48.5,64,0.0
2021-07-19T16:28:44Z,07/19/21 12:28,6074082,2.402,0.013000000000000001,497,29.0,48.3,64,0.0
2021-07-19T16:29:44Z,07/19/21 12:29,6074089,2.398,0.005,477,29.0,48.2,64,0.0
2021-07-19T16:30:44Z,07/19/21 12:30,6074096,2.225,0.007000000000000001,492,29.1,48.2,64,0.0
2021-07-19T16:31:44Z,07/19/21 12:31,6074103,2.287,0.002,492,29.0,48.1,64,0.0
2021-07-19T16:32:44Z,07/19/21 12:32,6074110,1.97,0.004,494,29.0,48.1,64,0.0
2021-07-19T16:33:44Z,07/19/21 12:33,6074117,2.244,0.003,489,29.0,48.0,64,0.0
2021-07-19T16:34:44Z,07/19/21 12:34,6074124,2.431,0.005,477,29.0,48.1,64,0.0
2021-07-19T16:35:44Z,07/19/21 12:35,6074131,2.029,0.011,485,29.0,47.9,64,0.0
2021-07-19T16:36:44Z,07/19/21 12:36,6074138,2.21,0.004,479,29.1,47.9,64,0.0
2021-07-19T16:37:44Z,07/19/21 12:37,6074145,2.214,0.006,496,29.1,47.8,64,0.0
2021-07-19T16:38:44Z,07/19/21 12:38,6074152,2.1870000000000003,0.006,494,29.1,47.8,64,0.0
2021-07-19T16:39:44Z,07/19/21 12:39,6074159,2.013,0.006,490,29.0,47.5,64,0.0
2021-07-19T16:40:44Z,07/19/21 12:40,6074166,2.097,0.009,511,29.0,47.3,64,0.0
2021-07-19T16:41:44Z,07/19/21 12:41,6074173,2.33,0.004,504,29.0,47.6,64,0.0
2021-07-19T16:42:44Z,07/19/21 12:42,6074180,2.0,0.004,505,28.9,47.3,64,0.0
2021-07-19T16:43:44Z,07/19/21 12:43,6074187,2.207,0.007000000000000001,491,28.9,47.5,64,0.0
2021-07-19T16:44:44Z,07/19/21 12:44,6074194,2.024,0.004,495,28.9,47.4,64,0.0
2021-07-19T16:45:44Z,07/19/21 12:45,6074201,2.185,0.002,481,28.8,47.4,64,0.0
2021-07-19T16:46:44Z,07/19/21 12:46,6074208,2.054,0.007000000000000001,489,28.8,47.7,64,0.0
2021-07-19T16:47:44Z,07/19/21 12:47,6074215,2.4859999999999998,0.004,505,28.9,47.9,64,0.0
2021-07-19T16:48:44Z,07/19/21 12:48,6074222,2.1,0.003,495,28.9,47.8,64,0.0
2021-07-19T16:49:44Z,07/19/21 12:49,6074229,2.085,0.003,493,28.8,47.6,64,0.0
2021-07-19T16:50:44Z,07/19/21 12:50,6074236,2.056,0.005,483,28.8,47.9,64,0.0
2021-07-19T16:51:44Z,07/19/21 12:51,6074243,2.295,0.006,495,28.9,48.2,64,0.0
2021-07-19T16:52:44Z,07/19/21 12:52,6074250,2.323,0.005,491,28.9,48.3,64,0.0
2021-07-19T16:53:44Z,07/19/21 12:53,6074257,2.2350000000000003,0.009,485,28.9,48.3,64,0.0
2021-07-19T16:54:44Z,07/19/21 12:54,6074264,2.169,0.012,473,28.9,48.3,64,0.0
2021-07-19T16:55:44Z,07/19/21 12:55,6074269,2.33,0.001,462,29.0,48.5,64,0.0
2021-07-19T16:56:44Z,07/19/21 12:56,6074274,2.326,0.011,471,29.0,48.1,64,0.0
2021-07-19T16:57:44Z,07/19/21 12:57,6074279,1.8690000000000002,0.006,481,28.9,48.1,64,0.0
2021-07-19T16:58:44Z,07/19/21 12:58,6074284,2.184,0.0,493,28.9,48.4,64,0.0
2021-07-19T16:59:44Z,07/19/21 12:59,6074288,2.1100000000000003,0.002,481,28.9,48.4,64,0.0
2021-07-19T17:00:44Z,07/19/21 13:00,6074292,2.091,0.012,475,28.9,48.5,64,0.0
2021-07-19T19:51:10Z,07/19/21 15:51,6074887,0.623,0.001,1181,34.3,38.4,64,0.0
2021-07-19T19:52:09Z,07/19/21 15:52,6074893,0.8320000000000001,0.005,904,33.7,39.1,64,0.0
2021-07-19T19:53:09Z,07/19/21 15:53,6074899,0.768,0.0,749,33.2,39.8,64,0.0
2021-07-19T19:54:10Z,07/19/21 15:54,6074905,0.7809999999999999,0.002,708,32.6,40.5,64,0.0
2021-07-19T19:55:09Z,07/19/21 15:55,6074911,0.739,0.002,700,32.1,41.2,64,0.0
2021-07-19T19:56:09Z,07/19/21 15:56,6074917,0.583,0.002,687,31.7,41.9,64,0.0
2021-07-19T19:57:09Z,07/19/21 15:57,6074923,0.724,0.002,704,31.3,42.6,64,0.0
2021-07-19T19:58:10Z,07/19/21 15:58,6074929,0.653,0.001,713,31.0,43.2,64,0.0
2021-07-19T19:59:09Z,07/19/21 15:59,6074935,0.554,0.001,701,30.6,43.8,64,0.0
2021-07-19T20:00:09Z,07/19/21 16:00,6074941,0.49400000000000005,0.001,697,30.4,44.4,64,0.0
2021-07-19T20:01:09Z,07/19/21 16:01,6074947,0.713,0.004,692,30.1,44.9,64,0.0
2021-07-19T20:02:09Z,07/19/21 16:02,6074953,0.659,0.001,695,29.9,45.5,64,0.0
2021-07-19T20:03:10Z,07/19/21 16:03,6074959,0.7929999999999999,0.002,710,29.7,46.0,64,0.0
2021-07-19T20:04:09Z,07/19/21 16:04,6074965,0.716,0.004,685,29.4,46.5,64,0.0
2021-07-19T20:05:09Z,07/19/21 16:05,6074971,0.67,0.002,716,29.2,46.9,64,0.0
2021-07-19T20:06:09Z,07/19/21 16:06,6074977,0.8210000000000001,0.001,767,29.1,47.3,64,0.0
2021-07-19T20:07:09Z,07/19/21 16:07,6074983,0.721,0.002,765,29.0,47.6,64,0.0
2021-07-19T20:08:10Z,07/19/21 16:08,6074989,0.8390000000000001,0.013000000000000001,777,28.8,47.9,64,0.0
2021-07-19T20:09:09Z,07/19/21 16:09,6074995,0.75,0.003,786,28.7,48.1,64,0.0
2021-07-19T20:10:09Z,07/19/21 16:10,6075001,0.748,0.002,787,28.5,48.5,64,0.0
2021-07-19T20:11:09Z,07/19/21 16:11,6075007,0.9109999999999999,0.001,786,28.4,48.8,64,0.0
2021-07-19T20:12:09Z,07/19/21 16:12,6075013,0.808,0.002,806,28.4,49.1,64,0.0
2021-07-19T20:13:09Z,07/19/21 16:13,6075019,0.858,0.0,799,28.2,49.3,64,0.0
2021-07-19T20:14:10Z,07/19/21 16:14,6075025,0.828,0.0,804,28.1,49.5,64,0.0
2021-07-19T20:15:09Z,07/19/21 16:15,6075031,0.851,0.001,816,27.9,49.7,64,0.0
2021-07-19T20:16:09Z,07/19/21 16:16,6075037,0.75,0.003,800,27.9,50.0,64,0.0
2021-07-19T20:17:09Z,07/19/21 16:17,6075043,0.8240000000000001,0.007000000000000001,812,27.8,50.2,64,0.0
2021-07-19T20:18:09Z,07/19/21 16:18,6075049,0.9189999999999999,0.002,819,27.7,50.4,64,0.0
2021-07-19T20:19:09Z,07/19/21 16:19,6075055,0.769,0.002,818,27.6,50.6,64,0.0
2021-07-19T20:20:09Z,07/19/21 16:20,6075061,0.8109999999999999,0.002,820,27.5,50.8,64,0.0
2021-07-19T20:21:09Z,07/19/21 16:21,6075066,0.891,0.003,827,27.5,50.9,64,0.0
2021-07-19T20:22:09Z,07/19/21 16:22,6075073,1.077,0.003,825,27.4,51.2,64,0.0
2021-07-19T20:23:09Z,07/19/21 16:23,6075079,0.722,0.001,806,27.3,51.5,64,0.0
2021-07-19T20:24:09Z,07/19/21 16:24,6075084,1.001,0.004,846,27.2,51.7,64,0.0
2021-07-19T20:25:09Z,07/19/21 16:25,6075091,0.9109999999999999,0.001,861,27.2,51.9,64,0.0
2021-07-19T20:26:09Z,07/19/21 16:26,6075097,0.807,0.003,841,27.2,52.1,64,0.0
2021-07-19T20:27:09Z,07/19/21 16:27,6075103,0.883,0.005,858,27.2,52.2,64,0.0
2021-07-19T20:28:09Z,07/19/21 16:28,6075110,0.728,0.001,850,27.1,52.4,64,0.0
2021-07-19T20:29:09Z,07/19/21 16:29,6075117,0.745,0.002,867,27.1,52.6,64,0.0
2021-07-19T20:30:09Z,07/19/21 16:30,6075124,0.726,0.0,886,27.0,52.8,64,0.0
2021-07-19T20:31:09Z,07/19/21 16:31,6075131,0.768,0.0,889,27.0,52.9,64,0.0
2021-07-19T20:32:09Z,07/19/21 16:32,6075138,0.892,0.002,881,27.0,53.1,64,0.0
2021-07-19T20:33:09Z,07/19/21 16:33,6075145,0.74,0.001,894,27.0,53.2,64,0.0
2021-07-19T20:34:09Z,07/19/21 16:34,6075152,0.669,0.006,872,27.0,53.3,64,0.0
2021-07-19T20:35:09Z,07/19/21 16:35,6075159,0.533,0.001,899,26.9,53.3,64,0.0
2021-07-19T20:36:09Z,07/19/21 16:36,6075166,0.945,0.0,882,26.9,53.3,64,0.0
2021-07-19T20:37:09Z,07/19/21 16:37,6075173,0.541,0.002,912,26.9,53.5,64,0.0
2021-07-19T20:38:09Z,07/19/21 16:38,6075180,0.696,0.0,901,26.8,53.5,64,0.0
2021-07-19T20:39:09Z,07/19/21 16:39,6075187,0.657,0.003,906,26.8,53.5,64,0.0
2021-07-19T20:40:09Z,07/19/21 16:40,6075194,0.6,0.0,895,26.8,53.5,64,0.0
2021-07-19T20:41:09Z,07/19/21 16:41,6075201,0.633,0.0,884,26.8,53.5,64,0.0
2021-07-19T20:42:09Z,07/19/21 16:42,6075208,0.657,0.0,905,26.7,53.5,64,0.0
2021-07-19T20:43:09Z,07/19/21 16:43,6075215,0.716,0.001,918,26.7,53.6,64,0.0
2021-07-19T20:44:09Z,07/19/21 16:44,6075222,0.729,0.0,892,26.7,53.5,64,0.0
2021-07-19T20:45:09Z,07/19/21 16:45,6075228,0.632,0.001,921,26.7,53.5,64,0.0
2021-07-19T20:46:09Z,07/19/21 16:46,6075236,0.638,0.001,924,26.7,53.5,64,0.0
2021-07-19T20:47:09Z,07/19/21 16:47,6075243,0.702,0.003,908,26.6,53.6,64,0.0
2021-07-19T20:48:09Z,07/19/21 16:48,6075250,0.52,0.002,970,26.6,53.5,64,0.0
2021-07-19T20:49:09Z,07/19/21 16:49,6075256,0.548,0.004,937,26.6,53.5,64,0.0
2021-07-19T20:50:09Z,07/19/21 16:50,6075264,0.521,0.001,900,26.6,53.5,64,0.0
2021-07-19T20:51:09Z,07/19/21 16:51,6075271,0.616,0.002,932,26.6,53.3,64,0.0
2021-07-19T20:52:09Z,07/19/21 16:52,6075278,0.54,0.003,924,26.6,53.3,64,0.0
2021-07-19T20:53:09Z,07/19/21 16:53,6075285,0.461,0.001,937,26.6,53.2,64,0.0
2021-07-19T20:54:09Z,07/19/21 16:54,6075292,0.597,0.003,942,26.6,53.2,64,0.0
2021-07-19T20:55:09Z,07/19/21 16:55,6075299,0.5309999999999999,0.003,915,26.6,53.2,64,0.0
2021-07-19T20:56:09Z,07/19/21 16:56,6075306,0.509,0.001,929,26.6,53.2,64,0.0
2021-07-19T20:57:09Z,07/19/21 16:57,6075313,0.654,0.0,944,26.6,53.4,64,0.0
2021-07-19T20:58:09Z,07/19/21 16:58,6075319,0.47000000000000003,0.001,940,26.6,53.8,64,0.0
2021-07-19T20:59:09Z,07/19/21 16:59,6075327,0.564,0.0,912,26.6,53.9,64,0.0
2021-07-19T21:00:09Z,07/19/21 17:00,6075334,0.576,0.0,940,26.7,53.9,64,0.0
2021-07-19T21:01:09Z,07/19/21 17:01,6075340,0.442,0.014000000000000002,934,26.7,53.8,64,0.0
2021-07-19T21:02:09Z,07/19/21 17:02,6075348,0.544,0.002,957,26.8,53.9,64,0.0
2021-07-19T21:03:09Z,07/19/21 17:03,6075355,0.521,0.001,946,26.8,53.9,64,0.0
2021-07-19T21:04:09Z,07/19/21 17:04,6075362,0.40800000000000003,0.003,946,26.9,53.8,64,0.0
2021-07-19T21:05:09Z,07/19/21 17:05,6075369,0.445,0.002,964,26.9,53.8,64,0.0
2021-07-19T21:06:09Z,07/19/21 17:06,6075376,0.581,0.004,961,27.0,53.8,64,0.0
2021-07-19T21:07:09Z,07/19/21 17:07,6075383,0.46799999999999997,0.0,956,27.0,53.8,64,0.0
2021-07-19T21:08:09Z,07/19/21 17:08,6075390,0.537,0.0,932,27.0,53.8,64,0.0
2021-07-19T21:09:09Z,07/19/21 17:09,6075397,0.383,0.001,962,27.1,53.8,64,0.0
2021-07-19T21:10:09Z,07/19/21 17:10,6075404,0.476,0.001,962,27.2,53.8,64,0.0
2021-07-19T21:11:09Z,07/19/21 17:11,6075411,0.529,0.002,952,27.2,53.7,64,0.0
2021-07-19T21:12:09Z,07/19/21 17:12,6075417,0.48200000000000004,0.001,958,27.2,53.7,64,0.0
2021-07-19T21:13:09Z,07/19/21 17:13,6075425,0.42000000000000004,0.0,969,27.3,53.7,64,0.0
2021-07-19T21:14:09Z,07/19/21 17:14,6075432,0.44400000000000006,0.003,976,27.3,53.7,64,0.0
2021-07-19T21:15:09Z,07/19/21 17:15,6075439,0.39,0.003,970,27.4,53.6,64,0.0
2021-07-19T21:16:09Z,07/19/21 17:16,6075446,0.383,0.004,1002,27.5,53.5,64,0.0
2021-07-19T21:17:09Z,07/19/21 17:17,6075453,0.384,0.0,969,27.6,53.5,64,0.0
2021-07-19T21:18:09Z,07/19/21 17:18,6075460,0.331,0.002,993,27.7,53.5,64,0.0
2021-07-19T21:19:09Z,07/19/21 17:19,6075467,0.418,0.002,977,27.8,53.4,64,0.0
2021-07-19T21:20:09Z,07/19/21 17:20,6075474,0.5559999999999999,0.002,1031,27.9,53.3,64,0.0
2021-07-19T21:21:09Z,07/19/21 17:21,6075481,0.49400000000000005,0.001,1004,27.9,53.3,64,0.0
2021-07-19T21:22:09Z,07/19/21 17:22,6075488,0.422,0.001,1024,28.0,53.3,64,0.0
2021-07-19T21:23:09Z,07/19/21 17:23,6075495,0.39,0.0,1017,28.1,53.2,64,0.0
2021-07-19T21:24:09Z,07/19/21 17:24,6075502,0.365,0.001,1026,28.2,53.0,64,0.0
2021-07-19T21:25:09Z,07/19/21 17:25,6075509,0.437,0.001,1019,28.2,52.9,64,0.0
2021-07-19T21:26:09Z,07/19/21 17:26,6075516,0.45499999999999996,0.001,999,28.4,52.9,64,0.0
2021-07-19T21:27:09Z,07/19/21 17:27,6075523,0.40499999999999997,0.003,1069,28.4,52.9,64,0.0
2021-07-19T21:28:09Z,07/19/21 17:28,6075530,0.702,0.006,1069,28.5,52.7,64,0.0
2021-07-19T21:29:09Z,07/19/21 17:29,6075537,0.554,0.001,1114,28.5,52.5,64,0.0
2021-07-19T21:30:09Z,07/19/21 17:30,6075544,0.434,0.001,1123,28.5,52.3,64,0.0
2021-07-19T21:31:09Z,07/19/21 17:31,6075551,0.475,0.005,1109,28.5,52.1,64,0.0
2021-07-19T21:32:09Z,07/19/21 17:32,6075558,0.41900000000000004,0.001,1127,28.5,52.0,64,0.0
2021-07-19T21:33:09Z,07/19/21 17:33,6075565,0.409,0.002,1077,28.5,51.9,64,0.0
2021-07-19T21:34:09Z,07/19/21 17:34,6075572,0.46699999999999997,0.004,1089,28.5,51.7,64,0.0
2021-07-19T21:35:09Z,07/19/21 17:35,6075580,0.376,0.002,1096,28.5,51.5,64,0.0
2021-07-19T21:36:09Z,07/19/21 17:36,6075588,0.47300000000000003,0.001,1107,28.5,51.4,64,0.0
2021-07-19T21:37:09Z,07/19/21 17:37,6075596,0.375,0.0,1101,28.5,51.2,64,0.0
2021-07-19T21:38:09Z,07/19/21 17:38,6075604,0.507,0.0,1115,28.5,51.1,64,0.0
2021-07-19T21:39:09Z,07/19/21 17:39,6075612,0.40800000000000003,0.0,1092,28.5,51.1,64,0.0
2021-07-19T21:40:09Z,07/19/21 17:40,6075620,0.395,0.001,1097,28.5,51.0,64,0.0
2021-07-19T21:41:09Z,07/19/21 17:41,6075628,0.275,0.001,1138,28.5,51.0,64,0.0
2021-07-19T21:42:09Z,07/19/21 17:42,6075636,0.379,0.002,1114,28.5,50.9,64,0.0
2021-07-19T21:43:09Z,07/19/21 17:43,6075644,0.323,0.001,1093,28.4,50.8,64,0.0
2021-07-19T21:44:09Z,07/19/21 17:44,6075651,0.324,0.0,1116,28.4,50.7,64,0.0
2021-07-19T21:45:09Z,07/19/21 17:45,6075660,0.34199999999999997,0.003,1119,28.4,50.8,64,0.0
2021-07-19T21:46:09Z,07/19/21 17:46,6075668,0.381,0.0,1143,28.4,50.7,64,0.0
2021-07-19T21:47:09Z,07/19/21 17:47,6075676,0.47300000000000003,0.001,1104,28.4,50.7,64,0.0
2021-07-19T21:48:09Z,07/19/21 17:48,6075684,0.378,0.003,1137,28.4,50.6,64,0.0
2021-07-19T21:49:09Z,07/19/21 17:49,6075692,0.34500000000000003,0.0,1162,28.4,50.6,64,0.0
2021-07-19T21:50:09Z,07/19/21 17:50,6075700,0.371,0.001,1152,28.4,50.6,64,0.0
2021-07-19T21:51:09Z,07/19/21 17:51,6075708,0.359,0.001,1142,28.3,50.5,64,0.0
2021-07-19T21:52:09Z,07/19/21 17:52,6075716,0.307,0.002,1151,28.3,50.4,64,0.0
2021-07-19T21:53:09Z,07/19/21 17:53,6075724,0.46399999999999997,0.001,1158,28.2,50.5,64,0.0
2021-07-19T21:54:09Z,07/19/21 17:54,6075732,0.384,0.003,1160,28.2,50.5,64,0.0
2021-07-19T21:55:09Z,07/19/21 17:55,6075740,0.329,0.001,1153,28.1,50.4,64,0.0
2021-07-19T21:56:09Z,07/19/21 17:56,6075748,0.33599999999999997,0.0,1144,28.1,50.4,64,0.0
2021-07-19T21:57:09Z,07/19/21 17:57,6075756,0.29,0.001,1187,28.1,50.4,64,0.0